Location: Chiroubles
(46.1812°N, 4.6660°E)
Time: 19:26:04
(UTC+00:00)

Cosmos 1814 Rocket - Pass Details

Date: 15 August 2020
Orbit: 744 x 788 km, 74.1° (Epoch: 24 September)

Event Time Altitude Azimuth Distance (km) Brightness Sun altitude
Rises 20:47:30 0° 341° (NNW) 3,227 8.4 -18.0°
Reaches altitude 10° 20:49:54 10° 345° (NNW) 2,304 7.4 -18.3°
Maximum altitude 20:55:04 59° 65° (ENE) 889 4.2 -18.9°
Enters shadow 20:56:58 37° 127° (SE) 1,189 4.4 -19.1°
